Location: Unspecified
(0.0000°N, 0.0000°E)
Time: 16:35:07
(UTC+01:00)

Cosmos 1125 Rocket - Visible Passes

Search period start: 22 December 2014 00:00
Search period end: 01 January 2015 00:00
Orbit: 758 x 782 km, 74.0° (Epoch: 22 December)

Date Brightness Start Highest point End Pass type
(mag) Time Alt. Az. Time Alt. Az. Time Alt. Az.
22 Dec 6.4 06:16:33 10° SSE 06:20:24 21° ESE 06:24:14 10° NE visible
23 Dec 6.6 19:55:27 10° WNW 19:58:30 16° WSW 20:01:32 10° SW visible
25 Dec 4.9 06:07:59 10° S 06:12:55 43° ESE 06:17:50 10° NNE visible
26 Dec 6.1 05:32:34 10° SSE 05:36:29 21° ESE 05:40:23 10° NE visible
28 Dec 3.5 06:00:11 10° SSW 06:05:24 90° WNW 06:10:39 10° NNE visible
29 Dec 4.6 05:24:01 10° S 05:28:59 44° ESE 05:33:56 10° NNE visible
30 Dec 5.8 04:48:34 10° SSE 04:52:32 22° ESE 04:56:31 10° NE visible
30 Dec 4.7 06:30:27 10° SW 06:34:20 21° WNW 06:38:15 10° NNW visible
31 Dec 6.6 04:15:19 10° ESE 04:16:05 10° ESE 04:16:51 10° E visible
31 Dec 3.8 05:52:58 10° SSW 05:57:54 43° WNW 06:02:51 10° N visible
